Orbital Elements at Epoch 2456165.5 (2012-Aug-26.0) TDB
Reference: JPL 14 (heliocentric ecliptic J2000)
Element | Value | Uncertainty (1-sigma) | Units |
e | .3364849745579609 | 4.3576e-06 | |
a | 3.529413569666615 | 3.7162e-07 | au |
q | 2.341818934472822 | 1.5513e-05 | au |
i | 12.37948217658112 | 7.8902e-05 | deg |
node | 184.0618520431379 | 0.00010699 | deg |
peri | 31.06890700832948 | 0.0021245 | deg |
M | 343.7215938627663 | 0.00095876 | deg |
tp | 2456275.011980322606 (2012-Dec-13.51198032) | 0.006451 | TDB |
period | 2421.877951918328 6.63 | 0.00038251 1.047e-06 | d yr |
n | .1486449801134075 | 2.3477e-08 | deg/d |
Q | 4.717008204860409 | 4.9667e-07 | au |
|
| | Orbit Determination Parameters
Additional Information
|